EW4694 Weather Reports


Display with metric or nautical units.
time (UTC)temp
F
wind
direction
speed
MPH
gust
MPH
rain 1hr
in
rain 24hr
in
rain mn
in
humidity
%
barometer
mb
20260503214508 60 269 0.0 0.0 0.00 0.00 0.00 36 1016.4
20260503213003 59 279 0.0 0.0 0.00 0.00 0.00 39 1016.5
20260503211559 59 278 0.0 0.0 0.00 0.00 0.00 38 1016.6
20260503210039 59 251 0.0 0.0 0.00 0.00 0.00 34 1016.7
20260503204539 60 294 0.0 0.0 0.00 0.00 0.00 39 1016.8
20260503203015 59 261 0.0 0.0 0.00 0.00 0.00 36 1017.1
20260503201509 59 249 0.0 0.0 0.00 0.00 0.00 39 1017.2
20260503200051 58 314 0.0 0.0 0.00 0.00 0.00 39 1017.4
20260503194543 58 283 0.0 0.0 0.00 0.00 0.00 39 1018.0
20260503193036 58 269 0.0 0.0 0.00 0.00 0.00 38 1018.0
20260503191517 58 269 0.0 0.0 0.00 0.00 0.00 38 1018.3
20260503190106 57 241 0.0 1.0 0.00 0.00 0.00 38 1018.5
20260503184557 57 312 0.0 0.0 0.00 0.00 0.00 42 1018.6
20260503183108 57 315 0.0 0.0 0.00 0.00 0.00 45 1018.8
20260503181614 56 305 0.0 0.0 0.00 0.00 0.00 39 1019.0
20260503180044 56 309 0.0 1.0 0.00 0.00 0.00 39 1019.3
20260503174541 56 288 0.0 0.0 0.00 0.00 0.00 43 1019.3
20260503173034 56 298 0.0 1.0 0.00 0.00 0.00 43 1019.4
20260503171529 55 317 0.0 0.0 0.00 0.00 0.00 45 1019.7
20260503081540 32 5 0.0 0.0 0.00 0.00 0.00 16 1019.2
20260503071557 34 5 0.0 0.0 0.00 0.00 0.00 22 1018.7
20260503070109 34 5 0.0 0.0 0.00 0.00 0.00 23 1018.6
20260503054547 36 5 0.0 0.0 0.00 0.00 0.00 40 1018.6
20260503053044 36 5 0.0 0.0 0.00 0.00 0.00 47 1018.5
20260503051528 37 5 0.0 0.0 0.00 0.00 0.00 50 1018.5
20260503050024 37 5 0.0 0.0 0.00 0.00 0.00 50 1018.5
20260503044504 38 5 0.0 0.0 0.00 0.00 0.00 50 1018.5
20260503043001 38 5 0.0 0.0 0.00 0.00 0.00 48 1018.5
20260503041547 39 5 0.0 0.0 0.00 0.00 0.00 53 1018.4
20260503040044 39 9 0.0 0.0 0.00 0.00 0.00 56 1018.3
20260503034541 40 5 0.0 0.0 0.00 0.00 0.00 61 1018.4
20260503033045 40 5 0.0 0.0 0.00 0.00 0.00 63 1018.4
20260503031532 40 9 0.0 0.0 0.00 0.00 0.00 67 1018.4
20260503030028 41 9 0.0 0.0 0.00 0.00 0.00 68 1018.4
20260503024523 41 5 0.0 0.0 0.00 0.00 0.00 68 1018.3
20260503023018 42 5 0.0 0.0 0.00 0.00 0.00 69 1018.4
20260503021559 43 5 0.0 0.0 0.00 0.00 0.00 68 1018.2
20260503020054 44 5 0.0 0.0 0.00 0.00 0.00 66 1018.1
20260503014531 44 360 0.0 0.0 0.00 0.00 0.00 66 1018.0
20260503013036 44 360 0.0 0.0 0.00 0.00 0.00 64 1017.9
20260503011506 45 310 0.0 0.0 0.00 0.00 0.00 63 1017.7
20260503010001 45 300 0.0 0.0 0.00 0.00 0.00 62 1017.5
20260503004541 46 355 0.0 0.0 0.00 0.00 0.00 62 1017.2
20260503003036 47 360 0.0 0.0 0.00 0.00 0.00 60 1017.0
20260503001516 47 338 0.0 0.0 0.00 0.00 0.00 59 1016.9
20260503000014 48 338 0.0 0.0 0.00 0.00 0.00 58 1016.7
20260502234548 48 326 0.0 0.0 0.00 0.00 0.00 55 1016.5
20260502233044 49 315 0.0 0.0 0.00 0.00 0.00 54 1016.3
20260502231523 50 335 0.0 0.0 0.00 0.00 0.00 51 1016.2
20260502230023 51 290 0.0 1.0 0.00 0.00 0.00 49 1015.9
20260502224620 51 327 0.0 0.0 0.00 0.00 0.00 48 1015.7
20260502223052 51 278 0.0 2.0 0.00 0.00 0.00 47 1015.7
20260502221550 51 300 0.0 0.0 0.00 0.00 0.00 47 1015.7
20260502220027 51 302 0.0 0.0 0.00 0.00 0.00 45 1015.3